Location: Nasgenstadt
(48.2786°N, 9.7553°E)
Time: 23:35:39
(UTC+02:00)

Tiangong 2 - Visible Passes

Search period start: 17 July 2018 00:00
Search period end: 27 July 2018 00:00
Orbit: 386 x 394 km, 42.8° (Epoch: 17 July)

Date Brightness Start Highest point End Pass type
(mag) Time Alt. Az. Time Alt. Az. Time Alt. Az.
17 Jul 2.1 22:44:01 10° WSW 22:46:49 28° S 22:47:59 22° SSE visible
18 Jul 2.9 23:23:17 10° WSW 23:25:03 18° SW 23:25:03 18° SW visible
19 Jul 2.5 22:25:30 10° WSW 22:28:07 24° SSW 22:29:46 16° SSE visible
20 Jul 3.3 23:05:11 10° SW 23:06:46 13° SSW 23:06:46 13° SSW visible
21 Jul 3.0 22:07:05 10° WSW 22:09:23 18° SSW 22:11:29 11° SSE visible
23 Jul 3.5 21:49:03 10° SW 21:50:33 13° SSW 21:52:03 10° S visible
